QBITO (42728 NORAD) Tracking and Keplerian Element Data

This shows tracking and keplerian element data for the satellite.

Feedback or suggestion? Click here.




ElementValue
Catalog42728
NameQBITO
Epoch Orbit9879
Epoch Day45.85279069
Epoch Year2019
RAAN172.7444
Inclination51.6191
Eccentricity0.0008165
Argument of Perigee334.7453
Mean Anonmoly166.1258
Mean Motion16.25582169
Decay Rate0.02113902
L11 42728U 98067MH 19045.85279069 .02113902 12020-4 66689-3 0 9993
L22 42728 51.6191 172.7444 0008165 334.7453 166.1258 16.25582169 98793



Live tracking and technical data element details for QBITO (NORAD 42728). QBITO can be tracked NOW for your location showing map with azimuth and elevation plus other details from your city location.







IsCatalogInMostPopularTable: catalog: 42728, numindb: 798
Update: records affected: 1



GetName: 42728 QBITO

Hit Count: updated at: Wed, 30 Apr 2025 17:39:47 GMT